FW9728 Weather Reports


time (UTC)temp
F
wind
direction
speed
knots
gust
knots
rain 1hr
in
rain 24hr
in
rain mn
in
humidity
%
barometer
mb
20260510060043 66 0 0.0 0.0 0.00 0.00 0.00 92 1014.3
20260510054536 66 0 0.0 0.9 0.00 0.00 0.00 91 1014.3
20260510053043 66 0 0.0 0.9 0.00 0.00 0.00 90 1014.2
20260510051541 67 0 0.0 0.9 0.00 0.00 0.00 90 1014.0
20260510050038 68 0 0.0 0.0 0.00 0.00 0.00 89 1013.7
20260510044549 68 0 0.0 0.0 0.00 0.00 0.00 88 1013.6
20260510043044 69 0 0.0 0.0 0.00 0.00 0.00 87 1013.5
20260510041535 69 0 0.0 0.9 0.00 0.00 0.00 86 1013.4
20260510040042 70 0 0.0 0.0 0.00 0.00 0.00 86 1013.4
20260510034535 70 0 0.0 1.7 0.00 0.00 0.00 85 1013.2
20260510033054 70 0 0.0 0.9 0.00 0.00 0.00 85 1013.4
20260510031539 70 0 0.0 0.0 0.00 0.00 0.00 85 1013.2
20260510030045 70 0 0.0 0.0 0.00 0.00 0.00 85 1013.1
20260510024536 70 0 0.0 0.0 0.00 0.00 0.00 85 1012.9
20260510023037 70 0 0.0 0.0 0.00 0.00 0.00 85 1012.6
20260510021536 70 0 0.0 0.0 0.00 0.00 0.00 85 1012.3
20260510020034 70 0 0.0 0.0 0.00 0.00 0.00 85 1012.1
20260510014538 70 0 0.0 0.0 0.00 0.00 0.00 84 1012.0
20260510013038 71 0 0.0 0.0 0.00 0.00 0.00 83 1011.8
20260510011534 71 0 0.0 0.0 0.00 0.00 0.00 82 1011.7
20260510010036 72 0 0.0 0.9 0.00 0.00 0.00 82 1011.5
20260510004540 72 0 0.0 0.9 0.00 0.00 0.00 82 1011.4
20260510003038 73 0 0.0 0.0 0.00 0.00 0.00 81 1011.3
20260510001538 74 0 0.0 0.0 0.00 0.00 0.00 80 1011.1
20260510000044 75 0 0.0 0.0 0.00 0.00 0.00 77 1011.0
20260509234551 76 0 0.0 0.0 0.00 0.00 0.00 77 1011.0
20260509233038 76 0 0.0 0.0 0.00 0.00 0.00 75 1010.9
20260509231533 77 0 0.0 0.0 0.00 0.00 0.00 74 1010.7
20260509230034 77 0 0.0 0.0 0.00 0.00 0.00 71 1010.7
20260509224532 78 0 0.0 0.9 0.00 0.00 0.00 69 1010.6
20260509223044 79 0 0.0 0.9 0.00 0.00 0.00 65 1010.4
20260509221538 80 0 0.0 5.2 0.00 0.00 0.00 60 1010.3
20260509220035 80 0 0.0 1.7 0.00 0.00 0.00 62 1010.3
20260509214532 80 165 0.0 2.6 0.00 0.00 0.00 62 1010.2
20260509213033 80 216 0.0 2.6 0.00 0.00 0.00 59 1010.3
20260509211531 80 0 0.0 4.3 0.00 0.00 0.00 65 1010.4
20260509210038 80 0 0.0 0.0 0.00 0.00 0.00 62 1010.6
20260509204535 81 0 0.0 0.0 0.00 0.00 0.00 58 1010.6
20260509203035 83 0 0.0 0.9 0.00 0.00 0.00 49 1010.6
20260509201533 84 0 0.0 1.7 0.00 0.00 0.00 50 1010.8
20260509200050 83 187 0.9 2.6 0.00 0.00 0.00 49 1011.1
20260509194533 82 91 0.0 1.7 0.00 0.00 0.00 54 1011.2
20260509193042 81 0 0.0 0.9 0.00 0.00 0.00 54 1011.3
20260509191536 80 0 0.0 2.6 0.00 0.00 0.00 54 1011.4
20260509190036 80 354 0.0 1.7 0.00 0.00 0.00 56 1011.5
20260509184541 80 314 0.9 1.7 0.00 0.00 0.00 56 1011.5
20260509183038 80 0 0.0 0.9 0.00 0.00 0.00 57 1011.7
20260509181543 79 0 0.9 1.7 0.00 0.00 0.00 57 1011.8
20260509180033 78 86 0.0 0.9 0.00 0.00 0.00 59 1011.9
20260509174534 78 0 0.0 3.5 0.00 0.00 0.00 63 1012.0
20260509173042 78 0 0.0 0.9 0.00 0.00 0.00 65 1012.3
20260509171544 77 308 0.0 0.9 0.00 0.00 0.00 68 1012.1
20260509170037 77 0 0.0 0.9 0.00 0.00 0.00 66 1012.1
20260509164537 77 0 0.0 0.9 0.00 0.00 0.00 70 1012.0
20260509163035 76 0 0.0 0.9 0.00 0.00 0.00 70 1011.9
20260509161538 76 286 0.0 1.7 0.00 0.00 0.00 69 1011.9
20260509160039 75 271 0.0 1.7 0.00 0.00 0.00 72 1011.9
20260509154538 75 0 0.0 1.7 0.00 0.00 0.00 72 1012.0
20260509153040 74 243 0.0 1.7 0.00 0.00 0.00 75 1011.9
20260509151537 72 0 0.0 0.9 0.00 0.00 0.00 76 1012.0
20260509150035 71 0 0.0 0.0 0.00 0.00 0.00 78 1012.1
20260509144603 69 0 0.0 0.0 0.00 0.00 0.00 82 1012.2
20260509143042 0 0.0 0.0 0.00 0.00 0.00 1012.2
20260509141540 0 0.0 0.0 0.00 0.00 0.00 1012.5
20260509140038 0 0.0 0.0 0.00 0.00 0.00 1012.5
20260509134533 0 0.0 0.0 0.00 0.00 0.00 1012.6
20260509133035 0 0.0 0.0 0.00 0.00 0.00 1012.6
20260509131539 0 0.0 0.0 0.00 0.00 0.00 1012.5
20260509130034 0 0.0 0.0 0.00 0.00 0.00 1012.5
20260509124547 0 0.0 0.0 0.00 0.00 0.00 1012.3
20260509123037 0 0.0 0.0 0.00 0.00 0.00 1012.0
20260509121536 0 0.0 0.0 0.00 0.00 0.00 1011.9
20260509120032 0 0.0 0.0 0.00 0.00 0.00 1011.7
20260509114537 0 0.0 0.0 0.00 0.00 0.00 1011.6
20260509113031 0 0.0 0.0 0.00 0.00 0.00 1011.4
20260509111535 0 0.0 0.0 0.00 0.00 0.00 1011.1
20260509110035 0 0.0 0.0 0.00 0.00 0.00 1010.9
20260509104536 57 0 0.0 0.0 0.00 0.00 0.00 94 1010.5
20260509103042 58 0 0.0 0.0 0.00 0.00 0.00 94 1010.2
20260509101537 58 0 0.0 0.0 0.00 0.00 0.00 94 1010.1
20260509100049 58 0 0.0 0.0 0.00 0.00 0.00 94 1010.2
20260509094536 58 0 0.0 0.0 0.00 0.00 0.00 94 1010.1
20260509093039 58 0 0.0 0.9 0.00 0.00 0.00 93 1010.2
20260509091537 59 0 0.0 0.0 0.00 0.00 0.00 92 1010.2
20260509090036 59 0 0.0 0.0 0.00 0.00 0.00 92 1010.4
20260509084536 60 0 0.0 0.0 0.00 0.00 0.00 91 1010.2
20260509083038 60 0 0.0 0.0 0.00 0.00 0.00 90 1010.3
20260509081544 61 0 0.0 0.0 0.00 0.00 0.00 90 1010.3
20260509080042 61 0 0.0 0.9 0.00 0.00 0.00 90 1010.5
20260509074539 61 0 0.0 0.9 0.00 0.00 0.00 89 1010.8
20260509073035 61 0 0.0 0.9 0.00 0.00 0.00 88 1010.7
20260509071535 63 0 0.0 0.9 0.00 0.00 0.00 86 1010.8
20260509070035 64 37 0.0 2.6 0.00 0.00 0.00 83 1010.9
20260509064538 63 331 0.9 3.5 0.00 0.00 0.00 84 1010.8
20260509063039 60 10 0.9 2.6 0.00 0.00 0.00 90 1010.9
20260509061545 60 0 0.0 0.0 0.00 0.00 0.00 92 1010.8